Location: Ford County Road and Bridge Department
(37.7686°N, 99.9762°W)
Time: 14:36:37
(UTC+00:00)

Cosmos 2219 - Pass Details

Date: 18 January 2020
Orbit: 833 x 861 km, 71.1° (Epoch: 23 February)

Event Time Altitude Azimuth Distance (km) Brightness Sun altitude
Rises 01:47:59 0° 214° (SSW) 3,364 6.9 -23.7°
Reaches altitude 10° 01:50:28 10° 218° (SW) 2,433 6.2 -24.1°
Maximum altitude 01:55:55 53° 295° (WNW) 1,013 3.8 -25.2°
Enters shadow 01:59:23 22° 5° (N) 1,742 4.7 -25.9°
